Probability
0 0 0 0 0 0 0 0 0 0 0 0 0 0 0 0 0 0 0 0 0 0 0 0 0 0 0 0 0 0 0 0 0 0 0 0 0 0 0 0 0 0 0
0 0 0 0 0 0 0 0 0 0 0 0 0 0 0 0 0 0 0 0 0 0 0 0 0 0 0 0 0 0 0 0 0 0 0 0 0 0 0 0 0 0 0
0 0 0 0 0 0 0 0 0 0 0 0 0 0 0 0 0 0 0 0 0 0 0 0 0 0 0 0 0 0 0 0 0 0 0 0 0 0 0 0 0 0 0
0 0 0 0 0 0 0 0 0 0 0 0 0 0 0 0 0 0 0 0 0 0 0 0 0 0 0 0 0 0 0 0 0 0 0 0 0 0 0 0 0 0 0
0 0 0 0 0 0 0 0 0 0 0 0 0 0 0 0 0 0 0 0 0 0 0 0 0 0 0 0 0 0 0 0 0 0 0 0 0 0 0 0 0 0 0
0 0 0 0 0 0 0 0 0 0 0 0 0 0 0 0 0 0 0 0 0 0 0 0 0 0 0 0 0 0 0 0 0 0 0 0 0 0 0 0 0 0 0
0 0 0 0 0 0 0 0 0 0 0 0 0 0 0 0 0 0 0 0 0 0 0 0 0 0 0 0 0 0 0 0 0 0 0 0 0 0 0 0 0 0 0
0 0 0 0 0 0 0 0 0 0 0 0 0 0 0 0 0 0 0 0 0 0 0 0 0 0 0 0 0 0 0 0 0 0 0 0 0 0 0 0 0 0 0
0 0 0 0 0 0 0 0 0 0 0 0 0 0 0 0 0 0 0 0 0 0 0 0 0 0 0 0 0 0 0 0 0 0 0 0 0 0 0 0 0 0 0
0 0 0 0 0 0 0 0 0 0 0 0 0 0 0 0 0 0 0 0 0 0 0 0 0 0 0 0 0 0 0 0 0 0 0 0 0 0 0 0 0 0 0
0 0 0 0 0 0 0 0 0 0 0 0 0 0 0 0 0 0 0 0 0 0 0 0 0 0 0 0 0 0 0 0 0 0 0 0 0 0 0 0 0 0 0
0 0 0 0 0 0 0 0 0 0 0 0 0 0 0 0 0 0 0 0 0 0 0 0 0 0 0 0 0 0 0 0 0 0 0 0 0 0 0 0 0 0 0
0 0 0 0 0 0 0 0 0 0 0 0 0 0 0 0 0 0 0 0 0 0 0 0 0 0 0 0 0 0 0 0 0 0 0 0 0 0 0 0 0 0 0
0 0 0 0 0 0 0 0 0 0 0 0 0 0 0 0 0 0 0 0 0 0 0 0 0 0 0 0 0 0 0 0 0 0 0 0 0 0 0 0 0 0 0
0 0 0 0 0 0 0 0 0 0 0 0 0 0 0 0 0 0 0 0 0 0 0 0 0 0 0 0 0 0 0 0 0 0 0 0 0 0 0 0 0 0 0
0 0 0 0 0 0 0 0 0 0 0 0 0 0 0 0 0 0 0 0 0 0 0 0 0 0 0 0 0 0 0 0 0 0 0 0 0 0 0 0 0 0 0
0 0 0 0 0 0 0 0 0 0 0 0 0 0 0 0 0 0 0 0 0 0 0 0 0 0 0 0 0 0 0 0 0 0 0 0 0 0 0 0 0 0 0
0 0 0 0 0 0 0 0 0 0 0 0 0 0 0 0 0 0 0 0 0 0 0 0 0 0 0 0 0 0 0 0 0 0 0 0 0 0 0 0 0 0 0
0 0 0 0 0 0 0 0 0 0 0 0 0 0 0 0 0 0 0 0 0 0 0 0 0 0 0 0 0 0 0 0 0 0 0 0 0 0 0 0 0 0 0
0 0 0 0 0 0 0 0 0 0 0 0 0 0 0 0 0 0 0 0 0 0 0 0 0 0 0 0 0 0 0 0 0 0 0 0 0 0 0 0 0 0 0
0 0 0 0 0 0 0 0 0 0 0 0 0 0 0 0 0 0 0 0 0 0 0 0 0 0 0 0 0 0 0 0 0 0 0 0 0 0 0 0 0 0 0
0 0 0 0 0 0 0 0 0 0 0 0 0 0 0 0 0 0 0 0 0 0 0 0 0 0 0 0 0 0 0 0 0 0 0 0 0 0 0 0 0 0 0
0 0 0 0 0 0 0 0 0 0 0 0 0 0 0 0 0 0 0 0 0 0 0 0 0 0 0 0 0 0 0 0 0 0 0 0 0 0 0 0 0 0 0
0 0 0 0 0 0 0 0 0 0 0 0 0 0 0 0 0 0 0 0 0 0 0 0 0 0 0 0 0 0 0 0 0 0 0 0 0 0 0 0 0 0 0
0 0 0 0 0 0 0 0 0 0 0 0 0 0 0 0 0 0 0 0 0 0 0 0 0 0 0 0 0 0 0 0 0 0 0 0 0 0 0 0 0 0 0
0 0 0 0 0 0 0 0 0 0 0 0 0 0 0 0 0 0 0 0 0 0 0 0 0 0 0 0 0 0 0 0 0 0 0 0 0 0 0 0 0 0 0
Wind_Speed
13 12 12 12 11 12 12 12 12 11 12 13 12 11 11 9 8 8 7 8 8 7 6 6 6 5 4 3 3 3 3 3 4 4 3 3 3 4 5 5 6 7 8
13 13 13 13 13 14 13 13 12 12 12 12 12 11 11 10 9 10 10 9 9 9 8 7 6 5 5 4 3 4 4 4 4 5 3 3 4 4 5 6 7 7 7
13 14 14 15 15 16 15 14 13 13 12 12 12 12 12 11 10 9 9 9 8 8 8 8 7 7 6 5 5 5 4 4 4 5 5 3 3 4 6 7 7 5 7
14 15 16 17 17 16 15 15 14 14 14 13 12 11 11 11 11 10 9 8 8 7 7 7 7 8 8 7 6 6 5 5 4 5 6 5 4 4 4 6 9 6 8
16 17 17 15 15 15 15 15 14 14 14 13 12 10 10 9 10 11 9 9 8 7 6 6 7 9 10 8 6 6 6 5 4 5 6 5 5 4 4 4 8 10 9
18 17 15 15 15 16 16 15 15 14 12 12 12 12 11 10 15 19 12 9 8 8 8 7 6 7 11 14 15 13 10 7 6 5 6 7 8 5 4 5 7 9 8
16 14 14 15 16 16 16 16 16 16 13 13 12 12 12 13 19 20 18 9 8 8 8 7 6 7 8 7 11 14 13 15 14 8 9 10 7 5 5 8 7 9 9
14 14 14 15 16 15 16 16 16 13 14 14 13 13 11 13 20 19 18 9 7 7 8 8 8 7 8 8 7 7 8 9 10 8 8 8 6 5 6 7 7 6 7
16 16 16 16 16 17 18 17 13 13 12 12 12 12 12 12 19 19 17 7 7 8 8 8 8 7 12 13 8 8 9 9 12 15 16 14 15 15 10 3 2 3 6
16 13 12 13 15 16 16 13 10 11 11 11 10 10 11 10 16 19 18 7 7 7 6 7 11 13 14 15 9 8 10 9 5 6 8 10 8 7 10 4 2 3 4
9 10 11 11 11 11 10 9 10 10 10 10 9 8 9 9 14 19 20 9 9 8 7 7 7 15 16 16 14 9 13 9 5 5 5 4 3 3 4 4 4 4 5
10 10 10 10 9 9 11 10 10 11 11 10 8 7 6 7 10 16 21 20 14 9 8 6 7 13 15 16 12 12 15 10 3 3 3 4 4 4 4 4 5 5 6
10 10 10 10 9 9 11 11 10 10 9 8 8 8 7 7 9 18 20 21 21 11 7 11 11 13 13 10 11 13 8 4 3 4 5 5 4 4 3 3 4 5 7
11 10 10 10 10 9 8 9 9 10 10 9 9 9 8 7 8 8 8 9 12 11 6 5 8 10 8 6 4 5 3 3 4 4 4 3 2 2 3 3 2 2 3
10 9 9 9 9 9 7 7 9 8 10 11 9 9 9 10 13 17 11 8 6 6 4 2 2 2 3 2 2 2 2 2 3 3 3 3 3 3 3 2 2 2 2
9 8 7 6 6 6 6 5 8 7 12 14 12 10 7 10 12 17 18 16 15 13 6 3 4 4 4 3 3 2 2 2 3 3 3 3 3 3 3 2 2 3 4
8 7 6 6 6 6 7 7 6 5 8 10 12 13 12 12 13 14 15 13 12 11 6 4 4 4 3 3 2 2 2 2 2 2 3 3 3 3 3 3 3 3 4
6 6 6 5 5 6 6 6 6 7 6 3 4 9 11 11 11 12 12 9 5 4 3 4 4 4 3 3 3 2 2 1 1 2 2 2 2 2 3 3 3 4 4
5 4 4 4 4 4 4 4 4 5 5 4 2 2 4 8 9 9 8 4 4 4 3 3 3 3 3 2 2 2 2 2 2 2 2 3 3 3 3 4 4 5 4
5 6 5 4 4 4 4 4 4 4 5 5 4 3 2 3 3 3 2 2 3 3 4 3 3 3 3 2 2 2 2 2 2 2 3 3 3 3 4 5 4 4 4
4 5 6 4 3 3 3 3 4 4 4 4 3 4 8 3 4 4 3 3 3 4 4 4 3 3 3 2 3 3 3 3 3 3 3 3 3 3 4 4 4 4 4
4 4 4 3 3 3 3 3 3 3 4 4 2 2 7 3 3 3 3 3 3 3 3 3 3 3 4 4 4 4 4 4 4 4 4 4 4 4 4 4 4 4 4
4 5 4 4 3 4 3 3 3 3 3 3 3 2 2 3 3 3 3 3 3 3 3 3 3 3 3 4 4 4 5 5 5 5 4 4 4 4 4 4 5 4 4
4 4 4 3 3 3 3 2 2 2 3 3 2 2 2 2 3 3 3 3 3 3 3 3 4 5 6 5 4 4 5 5 5 5 6 5 5 4 4 5 5 6 5
4 4 4 3 3 2 2 2 2 2 2 2 2 2 2 2 3 3 2 3 3 3 4 4 4 5 7 8 7 6 8 9 7 5 5 5 6 6 5 6 5 5 5
4 4 3 2 2 2 2 2 2 2 2 2 2 3 3 3 3 3 3 3 3 4 4 4 6 7 8 7 8 9 10 11 11 10 7 6 6 6 6 5 6 6 6
Wind_Direction
182 180 176 177 174 171 174 173 168 162 159 162 161 158 156 154 151 149 152 152 144 140 142 144 146 144 145 152 155 165 178 177 229 268 253 256 265 272 296 288 290 293 304
181 179 178 177 176 177 178 175 170 167 166 165 162 162 162 162 163 163 162 162 157 158 159 156 160 159 167 174 180 192 198 199 215 267 275 267 262 274 288 295 303 304 302
179 180 179 181 182 183 179 175 173 170 167 166 167 169 169 169 171 173 169 168 169 168 168 170 172 171 187 191 195 204 207 213 213 246 277 270 273 283 302 300 294 285 300
183 184 186 187 185 183 178 176 176 173 171 173 175 173 171 171 174 175 174 172 172 173 175 179 178 186 196 195 203 210 207 215 221 244 267 278 278 280 291 312 316 314 313
188 191 192 185 182 179 178 177 175 175 176 174 172 170 170 174 179 178 178 175 176 178 183 189 193 201 208 205 209 208 204 213 220 239 263 277 281 293 300 309 310 314 310
194 196 187 181 180 180 179 175 174 175 172 170 175 173 177 186 190 189 180 179 181 186 194 200 205 210 223 228 231 228 215 210 214 226 253 265 276 277 284 293 302 310 312
195 191 184 181 181 181 176 175 177 176 171 174 177 178 185 193 193 193 191 180 187 195 198 198 208 212 213 227 243 249 248 246 238 230 249 259 268 269 277 286 288 291 292
193 190 185 181 180 176 176 179 179 175 176 179 180 182 184 196 197 196 194 187 194 203 205 203 211 215 212 216 227 239 244 248 252 254 253 262 259 259 258 275 289 295 291
194 192 185 180 177 176 180 181 176 173 176 178 178 179 185 195 200 199 193 188 205 216 214 210 214 222 231 233 231 240 254 255 259 258 258 263 267 275 276 273 295 311 302
194 186 176 176 178 180 180 174 168 170 173 172 175 180 187 190 200 201 199 195 210 218 217 219 222 227 236 239 233 234 253 259 243 255 262 270 276 281 282 272 240 252 277
162 156 162 169 171 168 163 160 159 159 158 166 170 175 185 191 202 206 207 203 211 216 221 223 223 235 241 242 241 237 249 258 248 243 247 246 244 244 246 243 238 240 252
141 148 153 155 154 153 154 153 156 159 161 167 171 178 189 192 201 214 216 217 215 214 224 221 221 236 243 248 249 251 260 262 252 244 246 243 236 235 233 233 242 250 257
135 140 142 143 144 150 155 156 158 163 167 175 181 193 197 196 211 218 222 225 226 221 221 226 233 242 249 253 256 261 263 251 237 241 246 246 233 229 224 234 244 259 270
136 139 142 146 149 152 157 161 167 173 178 183 191 199 198 195 202 209 214 222 229 231 232 231 243 250 249 247 252 261 250 238 237 248 255 248 219 212 220 222 236 261 278
136 140 145 150 154 159 163 174 178 185 189 187 194 194 193 206 211 203 195 202 202 207 181 157 177 204 225 233 236 234 229 227 235 239 243 244 239 238 236 226 229 235 253
136 143 147 148 150 152 152 148 183 181 197 204 202 195 204 209 203 202 204 206 207 203 186 187 200 204 213 219 226 233 228 235 238 237 235 237 243 243 244 230 229 237 263
137 141 141 144 149 153 157 159 157 170 189 199 202 200 198 195 195 194 194 193 193 189 190 188 193 197 204 208 215 222 233 238 246 250 252 245 240 239 235 240 245 254 265
115 126 134 143 149 155 161 162 162 163 164 173 194 191 190 187 185 184 182 172 181 187 185 184 188 190 192 199 209 220 231 239 241 247 250 248 237 231 237 242 243 246 262
104 111 115 120 126 135 140 144 150 156 156 152 130 149 168 175 171 171 168 165 172 180 175 169 168 173 180 192 206 214 219 229 236 237 241 240 230 221 236 243 245 253 254
83 99 107 115 119 125 133 143 150 154 156 163 170 166 132 130 158 165 151 147 159 166 165 168 172 178 186 196 205 210 219 229 233 233 237 237 228 224 236 240 239 243 245
81 87 95 100 111 126 136 147 152 155 164 168 174 182 177 160 166 159 156 159 166 169 171 174 178 186 193 197 203 211 219 228 227 228 232 231 223 225 231 236 241 242 251
81 84 86 96 101 106 114 123 133 143 153 156 151 192 183 147 149 157 163 168 170 171 172 174 187 196 199 201 203 208 217 226 228 227 231 230 223 224 226 230 237 244 245
76 84 82 80 87 99 98 102 116 130 139 145 149 149 146 150 159 169 175 175 177 181 181 185 200 214 216 215 211 209 216 223 220 213 219 225 223 221 218 227 233 238 242
70 79 86 87 86 91 101 104 110 122 135 146 155 165 173 170 178 187 186 185 189 195 197 201 213 225 230 228 223 222 226 230 220 214 214 219 222 220 218 226 233 235 243
67 73 79 85 92 99 106 114 122 133 150 167 177 187 190 190 198 203 201 201 207 214 219 216 220 228 235 235 233 231 238 246 237 210 203 208 220 219 219 226 230 233 236
64 70 75 82 94 110 131 149 167 181 193 200 203 205 206 210 214 214 209 211 218 226 229 225 227 232 237 240 242 243 241 242 235 221 200 202 211 218 214 224 228 231 237